Weather History for KNJK - January, 2013

Change the Weather History Date:

Monday, January 7, 2013

  Actual Average Record
Temperature  
Mean Temperature 56 °F -  
Max Temperature 66 °F 66 °F 79 °F (2015)
Min Temperature 43 °F 44 °F 32 °F (2012)
Degree Days  
Heating Degree Days 10    
Growing Degree Days 6 (Base 50)    
Moisture  
Dew Point 34 °F    
Average Humidity 53    
Maximum Humidity 90    
Minimum Humidity 20    
Precipitation  
Precipitation 0.07 in - - ()
Sea Level Pressure  
Sea Level Pressure 30.03 in    
Wind  
Wind Speed 10 mph (WNW)    
Max Wind Speed 22 mph    
Max Gust Speed 30 mph    
Visibility 10 miles    
Events Rain    
Averages and records for this station are not official NWS values.
T = Trace of Precipitation, MM = Missing Value Source: NWS Daily Summary

Daily Weather History Graph

Daily Weather History Graph

Search for Another Location

Airport or City:

Trip Planner

Search our weather history database for the weather conditions in past years. The results will help you decide how hot, cold, wet, or windy it might be!

Date:

Astronomy

Jan. 07, 2013 Rise Set
Actual Time 6:45 AM PST 4:52 PM PST
Civil Twilight 6:18 AM PST 5:19 PM PST
Nautical Twilight 5:48 AM PST 5:50 PM PST
Astronomical Twilight 5:18 AM PST 6:19 PM PST
Moon 2:18 AM PST (1/7) 1:04 PM PST (1/7)
Length of Visible Light 11h 00m
Length of Day
10h 06m
Waning Crescent, 21% of the Moon is Illuminated
Jan 7
Waning Crescent
Jan 11
New
Jan 18
First Quarter
Jan 26
Full
Feb 3
Last Quarter

Hourly Weather History & Observations

Time (PST) Temp. Windchill Dew Point Humidity Pressure Visibility Wind Dir Wind Speed Gust Speed Precip Events Conditions
12:56 AM 51.1 °F - 43.0 °F 74% 30.04 in 10.0 mi SSE 6.9 mph - 0.03 in Rain Rain
1:56 AM 48.9 °F - 44.1 °F 83% 30.03 in 10.0 mi West 9.2 mph - 0.02 in Rain Light Rain
2:56 AM 48.0 °F - 44.1 °F 86% 30.01 in 10.0 mi WSW 10.4 mph - 0.02 in   Overcast
3:56 AM 48.0 °F - 43.0 °F 83% 30.01 in 10.0 mi WNW 12.7 mph - N/A   Mostly Cloudy
4:56 AM 46.9 °F - 44.1 °F 90% 30.02 in 10.0 mi West 6.9 mph - N/A   Mostly Cloudy
5:56 AM 46.0 °F 42.5 °F 43.0 °F 89% 30.03 in 10.0 mi West 6.9 mph - N/A   Mostly Cloudy
6:56 AM 46.0 °F 42.5 °F 43.0 °F 89% 30.05 in 10.0 mi West 6.9 mph - N/A   Mostly Cloudy
7:56 AM 46.9 °F - 43.0 °F 86% 30.06 in 10.0 mi WNW 8.1 mph - N/A   Scattered Clouds
8:56 AM 54.0 °F - 41.0 °F 62% 30.08 in 10.0 mi NW 10.4 mph - N/A   Partly Cloudy
9:56 AM 59.0 °F - 36.0 °F 42% 30.08 in 10.0 mi North 17.3 mph - N/A   Partly Cloudy
10:56 AM 61.0 °F - 30.0 °F 31% 30.06 in 10.0 mi NNW 21.9 mph 28.8 mph N/A   Partly Cloudy
11:56 AM 63.0 °F - 28.0 °F 27% 30.04 in 10.0 mi NNW 19.6 mph 26.5 mph N/A   Clear
12:56 PM 64.9 °F - 27.0 °F 24% 30.01 in 10.0 mi NNW 17.3 mph 29.9 mph N/A   Clear
1:56 PM 66.0 °F - 25.0 °F 21% 30.00 in 10.0 mi NNW 16.1 mph - N/A   Clear
2:56 PM 66.9 °F - 24.1 °F 20% 29.99 in 10.0 mi NNW 12.7 mph - N/A   Clear
3:56 PM 66.0 °F - 26.1 °F 22% 30.00 in 10.0 mi NNW 10.4 mph - N/A   Clear
4:56 PM 60.1 °F - 28.9 °F 31% 30.00 in 10.0 mi NNW 9.2 mph - N/A   Clear
5:56 PM 57.9 °F - 28.0 °F 32% 30.01 in 10.0 mi NW 8.1 mph - N/A   Clear
6:56 PM 55.0 °F - 27.0 °F 34% 30.02 in 10.0 mi West 6.9 mph - N/A   Clear
7:56 PM 54.0 °F - 26.1 °F 34% 30.02 in 10.0 mi NW 10.4 mph - N/A   Clear
8:56 PM 46.9 °F - 28.0 °F 48% 30.02 in 10.0 mi WNW 9.2 mph - N/A   Clear
9:56 PM 45.0 °F 39.3 °F 28.9 °F 53% 30.03 in 10.0 mi West 11.5 mph - N/A   Clear
10:56 PM 45.0 °F 39.7 °F 28.9 °F 53% 30.02 in - West 10.4 mph - N/A   Clear
11:56 PM 43.0 °F 36.8 °F 28.0 °F 56% 30.01 in - West 11.5 mph - N/A   Clear